Regional Weather Roundup
Issued by NWS Wakefield, VA

Home | Current Version | Previous Version | Text Only | Print | Product List | Glossary On
Versions: 1 2 3 4 5 6 7 8 9 10 11 12 13 14 15 16 17 18 19 20 21 22 23 24 25 26 27
000
ASUS41 KAKQ 110415
RWRAKQ

REGIONAL WEATHER ROUNDUP
NATIONAL WEATHER SERVICE WAKEFIELD VA
1100 PM EST SAT DEC 10 2016

Note: "fair" indicates few or no clouds below 12,000 feet with no
significant weather and/or obstructions to visibility. * = Denotes
station may not report precipitation (e.g., rain,snow,etc.),
thunder or fog.

VAZ042-051-052>054-056-110500-
NORTHERN VIRGINIA

CITY           SKY/WX    TMP DP  RH WIND       PRES   REMARKS
WASH NATIONAL  PTCLDY    30  13  49 NW9       30.55R
DULLES         PTCLDY    25  11  55 NW6       30.53R
FORT BELVOIR   NOT AVBL
QUANTICO       CLEAR     27  18  69 NW3       30.57R
FREDERICKSBRG* CLEAR     25  17  73 CALM      30.55R
STAFFORD*      CLEAR     22  16  79 CALM      30.59R
WARRENTON      CLEAR     18  12  77 CALM      30.53R
CULPEPER*      CLEAR     19  16  85 CALM      30.54R
MANASSAS*      NOT AVBL
LEESBURG*      CLEAR     28  18  64 W3        30.54R
WINCHESTER     CLEAR     23  12  63 W3        30.49F
FRONT ROYAL*   FAIR      21  14  73 CALM      30.49S
LURAY*         FAIR      23  19  86 CALM      30.48F
$$

VAZ048-049-060>072-079>083-110500-
CENTRAL AND SOUTH CENTRAL VIRGINIA

CITY           SKY/WX    TMP DP  RH WIND       PRES   REMARKS
RICHMOND       MOCLDY    27  17  66 NE6       30.54R
CHESTERFIELD*  FAIR      28   3  34 NE6       30.54R
PETERSBURG*    CLOUDY    20  18  90 CALM      30.54R
HANOVER        PTCLDY    28  13  53 CALM      30.56R
TAPPAHANNOCK*  PTCLDY    25  15  65 CALM      30.55R
QUINTON*       FAIR      28  16  62 CALM      30.54S
CHARLOTTSVILLE CLOUDY    28  12  51 CALM      30.50R
GORDONSVILLE*  FAIR      23  17  78 CALM      30.52R
ORANGE*          N/A     27  18  69 CALM      30.54R
LOUISA*        PTCLDY    28  18  64 E3        30.51R
BUMPASS*       FAIR      25  14  61 CALM      30.54R
FARMVILLE*     CLEAR     22  20  92 SW3       30.51R
CREWE*         FAIR      23  19  83 S5        30.51R
FORT PICKETT*  FAIR      26  11  51 CALM      30.51R
CHASE CITY*    FAIR      23  19  81 CALM      30.51R
CLARKSVILLE*   FAIR      27  21  80 CALM      30.51R
SOUTH HILL*    CLEAR     21  19  91 CALM      30.57S
LAWRENCEVILLE* FAIR      23  17  75 CALM      30.52R
EMPORIA*       CLEAR     21  18  86 CALM      30.55S
$$

VAZ088>098-110500-
SOUTHEAST VIRGINIA

CITY           SKY/WX    TMP DP  RH WIND       PRES   REMARKS
NORFOLK        CLEAR     34  18  52 CALM      30.53R
VIRGINIA BEACH PTCLDY    25  18  74 CALM      30.53R
NORFOLK NAVAL  MOCLDY    34  16  47 N6        30.55R
WEST POINT*    CLEAR     25  19  78 CALM      30.56F
SALUDA*        FAIR      32  18  57 N7        30.54R
NEWPORT NEWS   CLEAR     25  17  72 N3        30.54
LANGLEY AFB    CLEAR     27  20  73 SW3       30.53R
FORT EUSTIS    CLEAR     26  16  67 CALM      30.52R
WILLIAMSBURG*  CLEAR     28  25  86 CALM      30.55R
HR EXEC AP*    FAIR      19  16  86 CALM      30.53R
FRANKLIN*      CLEAR     24  19  84 CALM      30.55R
US460-WAKEFLD  CLEAR     23  20  88 CALM      30.54R
$$

VAZ020-022-025-037-045-110500-
WEST CENTRAL AND SOUTHWEST VIRGINIA

CITY           SKY/WX    TMP DP  RH WIND       PRES   REMARKS
STAUNTON*      PTCLDY    22  15  71 CALM      30.48F
WAYNESBORO*    FAIR      24  11  55 NW3       30.45S
HOT SPRINGS VA CLOUDY    21   7  53 S3        30.27F
LYNCHBURG      MOCLDY    25  18  74 CALM      30.50R
DANVILLE       CLEAR     22  17  81 CALM      30.51R
SOUTH BOSTON*  FAIR      23  17  75 CALM      30.53R
MARTINSVILLE   PTCLDY    20  15  79 CALM      30.50S
ROANOKE        CLOUDY    28  14  55 CALM      30.48R
BLACKSBURG     CLOUDY    26  16  65 CALM      30.44F
DUBLIN*        PTCLDY    27  13  55 CALM      30.43S
MARION*        CLOUDY    22  15  76 CALM      30.41S
HILLSVILLE*    PTCLDY    24  12  59 CALM      30.37S
RICHLANDS*     FAIR      26  14  60 CALM      30.36S
WISE*          CLOUDY    30  12  47 CALM      30.35F
ABINGDON*      CLOUDY    28  15  60 CALM      30.40S
$$

MDZ021>025-VAZ099-100-110500-
SOUTHERN MARYLAND AND THE DELMARVA PENINSULA

CITY           SKY/WX    TMP DP  RH WIND       PRES   REMARKS
PATUXENT RIVER CLEAR     30  15  53 N12       30.54R WCI  20
BAY BRIDGE APT CLEAR     30  14  51 MISG      30.54R
LEONARDTOWN    CLEAR     30  14  51 CALM      30.55S
DOVER          CLEAR     27  17  66 W5        30.51R
GEORGETOWN     CLEAR     26  16  65 CALM      30.53R
EASTON         CLEAR     29  15  56 CALM      30.57R
CAMBRIDGE      CLEAR     28  16  59 CALM      30.53R
SALISBURY      CLEAR     27  16  63 CALM      30.53R
OCEAN CITY     CLEAR     27  15  61 NW5       30.54R
WALLOPS ISLAND CLEAR     28  16  60 N5        30.54R
ACCOMACK*      CLEAR     28  20  72 NE5       30.54R
$$

NCZ012>017-030>032-110500-
NORTH CENTRAL AND EASTERN NORTH CAROLINA

CITY           SKY/WX    TMP DP  RH WIND       PRES   REMARKS
ROANOKE RAPIDS FAIR      25  21  86 CALM      30.53R
RALEIGH        CLEAR     29  16  58 CALM      30.52S
ELIZABETH CITY CLEAR     28  23  81 CALM      30.55R
AHOSKIE*       PTCLDY    24  20  87 CALM      30.54R
EDENTON*       NOT AVBL
CURRITUCK*     CLEAR     29  26  88 CALM      30.54S
KILL DEVIL HLS CLEAR     35  22  58 CALM      30.52S
MANTEO         CLEAR     36  17  47 CALM      30.55R
CAPE HATTERAS  CLEAR     39  22  50 VRB3      30.53R
TARBORO*       NOT AVBL
GOLDSBORO      CLEAR     27  20  73 CALM      30.53R
WASHINGTON     CLEAR     26  21  82 CALM      30.55R
GREENVILLE     CLEAR     28  27  93 CALM      30.54R
NEW BERN       CLEAR     27  23  85 CALM      30.55S
WILMINGTON     CLEAR     28  25  88 CALM      30.54S
$$

VAZ048-110500-
ELSEWHERE

CITY           SKY/WX    TMP DP  RH WIND       PRES   REMARKS
HARRISBURG PA  CLEAR     26  15  63 CALM      30.49R
BALTIMORE      CLEAR     25  13  60 NW6       30.53R
ANNAPOLIS      CLEAR     31  14  49 W7        30.54R
ANDREWS AFB    CLEAR     27  12  51 NW6       30.52R
PHILADELPHIA   CLEAR     27  15  61 W5        30.51R
HENDERSON NC   CLEAR     25  14  64 CALM      30.50S
GREENSBORO     CLEAR     30  17  58 CALM      30.48R
ROCKY MOUNT    CLEAR     26  23  88 CALM      30.54R
$$

VAZ100-110500-
MARINE

STATION/POSITION TIME  TEMP    WIND        PRES    WAVE   SWELL
                       AIR SEA DIR/SP/G            HT/PER HT/PER
                 (UTC) (F)     (DEG/KT/KT) (MB)    (FT/S) (FT/S)
BRANDYWINE LGT   0348   33     330/ 11/ 14   N/A
CAPE MAY NJ      0348   33 39  340/  8/ 13 1032.8R
LEWES DE         0348   32 44  300/  8/  9 1033.3R
OCEAN-CITY-INLET 0342   30 46  320/  6/  7 1034.2R
WACHAPREAGUE VA  0342   30 40  350/  2/  4 1033.9R
THOMAS POINT MD  0400   31 45  310/ 12/ 14   N/A
GOOSES REEF MD   0400   33 47  330/ 12/ 16 1034.9    1/ 3
COVE POINT MD    0342   32     350/ 10/ 15 1034.5R
SOLOMONS ISLAND  0342   31 47  340/  6/  8   N/A
BISHOPS HEAD MD  0342   30 37  340/  4/  6 1033.9R
PINEY POINT MD   0348          360/  8/  9   N/A
POTOMAC MD       0400   32 47  340/ 10/ 12 1033.3    1
CAMBRIDGE MD     0342   33 42  330/  7/ 11 1033.2R
LEWISETTA VA     0342   33 42   20/  6/ 10 1033.9R
RAPPAHANNOCK LGT 0348           10/ 13/ 14 1034.5R
STINGRAY PT      0400   35     360/ 12/ 14 1034.6    1/ 2
YORK RVR RNG VA  0342   36      10/ 12/ 13 1033.5R
YORKTOWN VA      0342   34 47   10/ 11/ 12 1033.7R
JAMESTOWN VA     0400   32 48   20/  4/  8   N/A     0
DOMINION TERM VA 0342   36      20/  3/  4 1034.2R
KIPTOPEKE VA     0348      48   60/  4/  5   N/A
CHES BAY BRIDGE  0342   38 49  350/  7/ 12 1033.5S
CAPE HENRY VA    0342   38     340/  9/ 12   N/A
WILLOUBY STN VA  0342   37     340/  7/  8 1034.9R
S CRANEY ISL VA  0342   37     350/  5/  7 1033.6R
CAPE HENRY BUOY  0342      53                N/A     2/ 3
1ST LANDING BUOY 0400   39 49              1034.1    1/ 3
CAPE CHARLES BUO 0356      51                N/A     1/ 6
OFFSHORE WE BUOY 0351      54                N/A     2/ 6
64NM E OF VA BCH 0350   41 58  340/ 12/ 16 1033.3R   3/ 4   2/ 6
DUCK PIER NC     0342   38 51  310/  5/  5 1033.5R
44100 DUCK FRF   0335      54                N/A     2/ 5
OREGON INLET NC  0342   34 46  330/  6/  7 1034.0R
HATTERAS NC      0342   41 51  330/ 12/ 14 1033.2R
DIAMOND SHLS NC  0350   44 77  360/ 12/ 16 1033.4R   4/ 8   3/ 8
CAPE LOOKOUT NC  0400   39     350/ 11/ 13 1033.4R
$$




USA.gov is the U.S. government's official web portal to all federal, state and local government web resources and services.